Regional Weather Roundup
Issued by NWS

Home | Current Version | Previous Version | Text Only | Print | Product List | Glossary On
Versions: 1 2 3 4 5 6 7 8 9 10 11 12 13 14 15 16 17 18 19 20 21 22 23 24 25 26 27
000
ASUS42 KKEY 231010
RWRKEY

FLORIDA REGIONAL WEATHER ROUNDUP FOR THE FLORIDA KEYS
NATIONAL WEATHER SERVICE KEY WEST FLORIDA
600 AM EDT WED AUG 23 2017

...SOUTH FLORIDA AND THE KEYS...

CITY           SKY/WX    TMP DP  RH WIND       PRES   REMARKS
FORT MYERS     CLEAR     78  78 100 NE3       29.91S
SW REGIONAL AP CLEAR     78  76  93 NE3       29.91S
NAPLES         PTCLDY    78  77  96 NE3       29.90S
MIAMI          MOCLDY    80  75  84 CALM      29.91S
WEST KENDALL   CLEAR     78  73  84 N3        29.91R
HOMESTEAD      CLEAR     77  77  98 NE3       29.90R
MARATHON       CLOUDY    79  79 100 CALM      29.89S
BOCA CHICA NAS CLOUDY    81  79  94 NE3       29.89S HX  90
KEY WEST INTL  MOCLDY    81  76  84 CALM      29.90R

...INTERNATIONAL WEATHER...

CITY           SKY/WX    TMP DP  RH WIND       PRES   REMARKS
NASSAU BAHAMAS LGT RAIN  79  75  89 CALM      29.95S
CANCUN MEXICO  MOCLDY    81  79  94 SE7       29.88S
COZUMEL MEXICO PTCLDY    79  77  94 CALM      29.87R

ADJACENT COASTAL WATERS...

STATION/POSITION TIME  SKY/WX   TEMP    WIND        PRES    WAVE
                                AIR SEA DIR/SP/G            HT/PER
                 (UTC)          (F)     (DEG/KT/KT) (MB)    (FT/S)
PULASKI SHOAL LI 1000            83      90/  7/  8 1012.4R
SAND KEY         0950            82                 1012.8S
LONG KEY         NOT AVBL
MOLASSES REEF    NOT AVBL
FOWEY ROCKS      0900            83 85  120/  5/  5 1013.0F
Buoy 42097       0930               87                N/A     2/ 4

$$




USA.gov is the U.S. government's official web portal to all federal, state and local government web resources and services.